TimeEDT,TemperatureF,Dew PointF,Humidity,Sea Level PressureIn,VisibilityMPH,Wind Direction,Wind SpeedMPH,Gust SpeedMPH,PrecipitationIn,Events,Conditions,WindDirDegrees,DateUTC
12:15 AM,69.8,64.4,83,30.07,10.0,Calm,Calm,-,N/A,,Overcast,0,2013-10-13 04:15:00
12:35 AM,69.8,64.4,83,30.07,10.0,Calm,Calm,-,N/A,,Overcast,0,2013-10-13 04:35:00
12:55 AM,69.8,64.4,83,30.07,10.0,Calm,Calm,-,N/A,,Overcast,0,2013-10-13 04:55:00
1:15 AM,68.0,64.4,88,30.07,10.0,Calm,Calm,-,N/A,,Mostly Cloudy,0,2013-10-13 05:15:00
1:35 AM,68.0,64.4,88,30.07,10.0,Calm,Calm,-,N/A,,Overcast,0,2013-10-13 05:35:00
1:55 AM,69.8,64.4,83,30.08,10.0,Calm,Calm,-,N/A,,Overcast,0,2013-10-13 05:55:00
2:15 AM,69.8,62.6,78,30.07,10.0,NNE,4.6,-,N/A,,Overcast,30,2013-10-13 06:15:00
2:35 AM,69.8,62.6,78,30.08,10.0,NNE,4.6,-,N/A,,Overcast,30,2013-10-13 06:35:00
2:55 AM,69.8,62.6,78,30.08,10.0,NNE,5.8,-,N/A,,Overcast,30,2013-10-13 06:55:00
3:15 AM,69.8,62.6,78,30.08,10.0,NE,4.6,-,N/A,,Overcast,40,2013-10-13 07:15:00
3:35 AM,69.8,62.6,78,30.08,10.0,NNE,4.6,-,N/A,,Overcast,30,2013-10-13 07:35:00
3:55 AM,69.8,62.6,78,30.08,10.0,NNE,5.8,-,N/A,,Overcast,30,2013-10-13 07:55:00
4:15 AM,68.0,62.6,83,30.08,10.0,NE,4.6,-,N/A,,Overcast,50,2013-10-13 08:15:00
4:35 AM,68.0,62.6,83,30.09,10.0,NNE,4.6,-,N/A,,Mostly Cloudy,30,2013-10-13 08:35:00
4:55 AM,68.0,62.6,83,30.09,10.0,NE,3.5,-,N/A,,Mostly Cloudy,40,2013-10-13 08:55:00
5:15 AM,68.0,62.6,83,30.09,10.0,NNE,4.6,-,N/A,,Overcast,30,2013-10-13 09:15:00
5:35 AM,66.2,62.6,88,30.09,10.0,Calm,Calm,-,N/A,,Overcast,0,2013-10-13 09:35:00
5:55 AM,66.2,62.6,88,30.09,10.0,Calm,Calm,-,N/A,,Overcast,0,2013-10-13 09:55:00
6:15 AM,66.2,62.6,88,30.10,10.0,Calm,Calm,-,N/A,,Mostly Cloudy,0,2013-10-13 10:15:00
6:35 AM,64.4,62.6,94,30.10,10.0,Calm,Calm,-,N/A,,Partly Cloudy,0,2013-10-13 10:35:00
6:55 AM,64.4,62.6,94,30.11,10.0,Calm,Calm,-,N/A,,Clear,0,2013-10-13 10:55:00
7:15 AM,64.4,62.6,94,30.12,10.0,Calm,Calm,-,N/A,,Clear,0,2013-10-13 11:15:00
7:35 AM,62.6,62.6,100,30.12,10.0,Calm,Calm,-,N/A,,Clear,0,2013-10-13 11:35:00
7:55 AM,62.6,62.6,100,30.12,10.0,Calm,Calm,-,N/A,,Partly Cloudy,0,2013-10-13 11:55:00
8:15 AM,64.4,62.6,94,30.13,10.0,Calm,Calm,-,N/A,,Scattered Clouds,0,2013-10-13 12:15:00
8:35 AM,64.4,62.6,94,30.13,10.0,North,5.8,-,N/A,,Mostly Cloudy,360,2013-10-13 12:35:00
8:55 AM,66.2,62.6,88,30.14,10.0,NNE,6.9,-,N/A,,Scattered Clouds,20,2013-10-13 12:55:00
9:15 AM,66.2,62.6,88,30.15,10.0,NE,6.9,-,N/A,,Clear,40,2013-10-13 13:15:00
9:35 AM,69.8,64.4,83,30.16,10.0,NE,10.4,-,N/A,,Clear,40,2013-10-13 13:35:00
9:55 AM,69.8,62.6,78,30.16,10.0,NE,9.2,-,N/A,,Clear,50,2013-10-13 13:55:00
10:15 AM,71.6,62.6,73,30.17,10.0,NE,11.5,-,N/A,,Scattered Clouds,40,2013-10-13 14:15:00
10:35 AM,73.4,62.6,69,30.17,10.0,NNE,10.4,-,N/A,,Mostly Cloudy,20,2013-10-13 14:35:00
10:55 AM,71.6,62.6,73,30.17,10.0,North,10.4,-,N/A,,Scattered Clouds,10,2013-10-13 14:55:00
11:15 AM,73.4,62.6,69,30.17,10.0,North,8.1,-,N/A,,Mostly Cloudy,10,2013-10-13 15:15:00
11:35 AM,73.4,62.6,69,30.17,10.0,NNE,5.8,-,N/A,,Mostly Cloudy,30,2013-10-13 15:35:00
12:15 PM,73.4,62.6,69,30.17,10.0,North,9.2,-,N/A,,Overcast,10,2013-10-13 16:15:00
12:35 PM,73.4,62.6,69,30.16,10.0,NNE,6.9,-,N/A,,Overcast,30,2013-10-13 16:35:00
12:55 PM,73.4,62.6,69,30.15,10.0,North,8.1,-,N/A,,Overcast,350,2013-10-13 16:55:00
1:15 PM,73.4,62.6,69,30.15,10.0,NNE,6.9,-,N/A,,Overcast,20,2013-10-13 17:15:00
1:35 PM,73.4,62.6,69,30.15,10.0,North,8.1,-,N/A,,Overcast,10,2013-10-13 17:35:00
1:55 PM,73.4,62.6,69,30.14,10.0,NNE,6.9,-,N/A,,Overcast,30,2013-10-13 17:55:00
2:15 PM,73.4,62.6,69,30.13,10.0,North,10.4,-,N/A,,Overcast,360,2013-10-13 18:15:00
2:35 PM,75.2,62.6,65,30.13,10.0,NNE,9.2,-,N/A,,Mostly Cloudy,20,2013-10-13 18:35:00
2:55 PM,75.2,62.6,65,30.12,10.0,NE,8.1,-,N/A,,Overcast,40,2013-10-13 18:55:00
3:15 PM,75.2,62.6,65,30.11,10.0,North,6.9,-,N/A,,Overcast,360,2013-10-13 19:15:00
3:35 PM,77.0,62.6,61,30.11,10.0,NNE,4.6,-,N/A,,Overcast,30,2013-10-13 19:35:00
3:55 PM,75.2,62.6,65,30.11,10.0,NE,5.8,-,N/A,,Overcast,40,2013-10-13 19:55:00
4:15 PM,75.2,62.6,65,30.11,10.0,NNE,5.8,-,N/A,,Overcast,30,2013-10-13 20:15:00
4:35 PM,75.2,62.6,65,30.11,10.0,NNE,4.6,-,N/A,,Overcast,20,2013-10-13 20:35:00
4:55 PM,75.2,62.6,65,30.11,10.0,NNE,6.9,-,N/A,,Overcast,20,2013-10-13 20:55:00
5:15 PM,75.2,62.6,65,30.11,10.0,NE,6.9,-,N/A,,Overcast,40,2013-10-13 21:15:00
5:35 PM,75.2,62.6,65,30.11,10.0,ENE,4.6,-,N/A,,Overcast,60,2013-10-13 21:35:00
5:55 PM,73.4,62.6,69,30.11,10.0,NE,6.9,-,N/A,,Overcast,50,2013-10-13 21:55:00
6:15 PM,73.4,62.6,69,30.12,10.0,NNE,3.5,-,N/A,,Mostly Cloudy,30,2013-10-13 22:15:00
6:35 PM,73.4,62.6,69,30.12,10.0,NE,4.6,-,N/A,,Mostly Cloudy,40,2013-10-13 22:35:00
6:55 PM,73.4,62.6,69,30.13,10.0,NE,9.2,-,N/A,,Mostly Cloudy,40,2013-10-13 22:55:00
7:15 PM,71.6,64.4,78,30.13,10.0,NE,4.6,-,N/A,,Overcast,40,2013-10-13 23:15:00
7:35 PM,71.6,64.4,78,30.14,9.0,ENE,9.2,-,N/A,,Light Drizzle,60,2013-10-13 23:35:00
7:55 PM,69.8,64.4,83,30.15,10.0,NE,3.5,-,N/A,,Mostly Cloudy,50,2013-10-13 23:55:00
8:15 PM,69.8,64.4,83,30.15,10.0,NE,3.5,-,N/A,,Scattered Clouds,40,2013-10-14 00:15:00
8:35 PM,69.8,64.4,83,30.16,10.0,Calm,Calm,-,N/A,,Mostly Cloudy,0,2013-10-14 00:35:00
8:55 PM,69.8,64.4,83,30.16,10.0,Calm,Calm,-,N/A,,Overcast,0,2013-10-14 00:55:00
9:15 PM,69.8,64.4,83,30.15,10.0,Calm,Calm,-,N/A,,Overcast,0,2013-10-14 01:15:00
9:35 PM,69.8,64.4,83,30.15,10.0,Calm,Calm,-,N/A,,Overcast,0,2013-10-14 01:35:00
9:55 PM,69.8,64.4,83,30.16,10.0,Calm,Calm,-,N/A,,Overcast,0,2013-10-14 01:55:00
10:15 PM,69.8,64.4,83,30.16,10.0,Calm,Calm,-,N/A,,Overcast,0,2013-10-14 02:15:00
10:35 PM,69.8,64.4,83,30.16,10.0,NE,3.5,-,N/A,,Overcast,40,2013-10-14 02:35:00
10:55 PM,69.8,64.4,83,30.16,10.0,NNE,4.6,-,N/A,,Overcast,30,2013-10-14 02:55:00
11:15 PM,69.8,64.4,83,30.16,10.0,NNE,5.8,-,N/A,,Overcast,30,2013-10-14 03:15:00
11:35 PM,69.8,64.4,83,30.16,10.0,NE,5.8,-,N/A,,Overcast,40,2013-10-14 03:35:00
11:55 PM,68.0,64.4,88,30.15,10.0,NNE,5.8,-,N/A,,Overcast,30,2013-10-14 03:55:00